Time,TemperatureF,DewpointF,PressureIn,WindDirection,WindDirectionDegrees,WindSpeedMPH,WindSpeedGustMPH,Humidity,HourlyPrecipIn,Conditions,Clouds,dailyrainin,SoftwareType,DateUTC
2015-08-03 00:00:00,49.4,40.5,29.90,WNW,292,17.0,17.0,71,0.00,,,0.00,WUHU21623XXSP,2015-08-02 14:00:00,
2015-08-03 00:05:00,49.6,40.7,29.90,NW,315,14.0,17.0,71,0.00,,,0.00,WUHU21623XXSP,2015-08-02 14:05:00,
2015-08-03 00:10:00,49.6,40.7,29.89,West,270,6.0,17.0,71,0.00,,,0.00,WUHU21623XXSP,2015-08-02 14:10:00,
2015-08-03 00:15:00,49.6,40.6,29.89,NW,306,6.0,14.0,71,0.00,,,0.00,WUHU21623XXSP,2015-08-02 14:15:00,
2015-08-03 00:20:00,49.5,40.6,29.89,West,270,6.0,9.0,71,0.00,,,0.00,WUHU21623XXSP,2015-08-02 14:20:00,
2015-08-03 00:25:00,49.9,40.6,29.89,WNW,292,10.0,12.0,70,0.00,,,0.00,WUHU21623XXSP,2015-08-02 14:25:00,
2015-08-03 00:30:00,49.5,40.2,29.89,West,270,11.0,12.0,70,0.00,,,0.00,WUHU21623XXSP,2015-08-02 14:30:00,
2015-08-03 00:35:00,49.5,40.6,29.90,WSW,253,7.0,13.0,71,0.00,,,0.00,WUHU21623XXSP,2015-08-02 14:35:00,
2015-08-03 00:40:00,49.5,40.6,29.89,West,269,6.0,13.0,71,0.00,,,0.00,WUHU21623XXSP,2015-08-02 14:40:00,
2015-08-03 00:45:00,49.5,40.6,29.89,WNW,292,12.0,12.0,71,0.00,,,0.00,WUHU21623XXSP,2015-08-02 14:45:00,
2015-08-03 00:50:00,49.5,40.5,29.89,West,269,18.0,20.0,71,0.00,,,0.00,WUHU21623XXSP,2015-08-02 14:50:00,
2015-08-03 00:55:00,49.8,40.9,29.89,West,270,12.0,20.0,71,0.00,,,0.00,WUHU21623XXSP,2015-08-02 14:55:00,
2015-08-03 01:01:00,49.8,40.9,29.88,West,281,4.0,14.0,71,0.00,,,0.00,WUHU21623XXSP,2015-08-02 15:01:00,
2015-08-03 01:06:00,49.8,40.5,29.89,WNW,292,15.0,16.0,70,0.00,,,0.00,WUHU21623XXSP,2015-08-02 15:06:00,
2015-08-03 01:11:00,50.0,41.1,29.89,West,259,8.0,16.0,71,0.00,,,0.00,WUHU21623XXSP,2015-08-02 15:11:00,
2015-08-03 01:16:00,49.8,40.9,29.89,WSW,247,11.0,11.0,71,0.00,,,0.00,WUHU21623XXSP,2015-08-02 15:16:00,
2015-08-03 01:21:00,49.8,40.9,29.89,NW,311,14.0,14.0,71,0.00,,,0.00,WUHU21623XXSP,2015-08-02 15:21:00,
2015-08-03 01:26:00,49.8,40.9,29.89,WNW,292,14.0,21.0,71,0.00,,,0.00,WUHU21623XXSP,2015-08-02 15:26:00,
2015-08-03 01:31:00,49.8,40.5,29.88,SW,225,5.0,21.0,70,0.00,,,0.00,WUHU21623XXSP,2015-08-02 15:31:00,
2015-08-03 01:36:00,49.6,40.3,29.89,WNW,292,4.0,7.0,70,0.00,,,0.00,WUHU21623XXSP,2015-08-02 15:36:00,
2015-08-03 01:41:00,49.5,40.3,29.89,West,270,12.0,18.0,70,0.00,,,0.00,WUHU21623XXSP,2015-08-02 15:41:00,
2015-08-03 01:46:00,49.7,40.5,29.89,WSW,256,9.0,18.0,70,0.00,,,0.00,WUHU21623XXSP,2015-08-02 15:46:00,
2015-08-03 01:51:00,49.7,40.8,29.89,WSW,247,14.0,14.0,71,0.00,,,0.00,WUHU21623XXSP,2015-08-02 15:51:00,
2015-08-03 01:56:00,49.7,40.8,29.89,West,276,16.0,20.0,71,0.00,,,0.00,WUHU21623XXSP,2015-08-02 15:56:00,
2015-08-03 02:01:00,49.7,40.8,29.89,WNW,292,15.0,20.0,71,0.00,,,0.00,WUHU21623XXSP,2015-08-02 16:01:00,
2015-08-03 02:06:00,49.7,40.8,29.89,WSW,247,8.0,15.0,71,0.00,,,0.00,WUHU21623XXSP,2015-08-02 16:06:00,
2015-08-03 02:11:00,49.7,40.8,29.89,WNW,292,15.0,15.0,71,0.00,,,0.00,WUHU21623XXSP,2015-08-02 16:11:00,
2015-08-03 02:16:00,49.7,40.4,29.89,West,270,6.0,15.0,70,0.00,,,0.00,WUHU21623XXSP,2015-08-02 16:16:00,
2015-08-03 02:21:00,49.7,40.8,29.89,West,270,13.0,17.0,71,0.00,,,0.00,WUHU21623XXSP,2015-08-02 16:21:00,
2015-08-03 02:26:00,49.7,40.8,29.90,WSW,247,16.0,17.0,71,0.00,,,0.00,WUHU21623XXSP,2015-08-02 16:26:00,
2015-08-03 02:31:00,49.7,40.8,29.89,WSW,247,13.0,16.0,71,0.00,,,0.00,WUHU21623XXSP,2015-08-02 16:31:00,
2015-08-03 02:36:00,49.7,40.8,29.90,WSW,247,11.0,16.0,71,0.00,,,0.00,WUHU21623XXSP,2015-08-02 16:36:00,
2015-08-03 02:40:00,49.7,40.7,29.90,West,270,7.0,13.0,71,0.00,,,0.00,WUHU21623XXSP,2015-08-02 16:40:00,
2015-08-03 02:46:00,49.7,40.7,29.90,SW,222,10.0,15.0,71,0.00,,,0.00,WUHU21623XXSP,2015-08-02 16:46:00,
2015-08-03 02:51:00,49.7,40.7,29.90,West,270,13.0,15.0,71,0.00,,,0.00,WUHU21623XXSP,2015-08-02 16:51:00,
2015-08-03 02:55:00,49.7,40.7,29.91,NW,326,9.0,13.0,71,0.00,,,0.00,WUHU21623XXSP,2015-08-02 16:55:00,
2015-08-03 03:01:00,49.7,40.7,29.90,West,270,5.0,13.0,71,0.00,,,0.00,WUHU21623XXSP,2015-08-02 17:01:00,
2015-08-03 03:05:00,49.3,40.7,29.91,West,270,10.0,13.0,72,0.00,,,0.00,WUHU21623XXSP,2015-08-02 17:05:00,
2015-08-03 03:10:00,49.3,40.7,29.91,WNW,288,13.0,18.0,72,0.00,,,0.00,WUHU21623XXSP,2015-08-02 17:10:00,
2015-08-03 03:15:00,49.3,40.7,29.91,WSW,247,5.0,18.0,72,0.00,,,0.00,WUHU21623XXSP,2015-08-02 17:15:00,
2015-08-03 03:20:00,49.3,40.7,29.91,NW,315,7.0,11.0,72,0.00,,,0.00,WUHU21623XXSP,2015-08-02 17:20:00,
2015-08-03 03:25:00,49.3,41.1,29.91,South,180,8.0,10.0,73,0.00,,,0.00,WUHU21623XXSP,2015-08-02 17:25:00,
2015-08-03 03:30:00,49.3,41.1,29.91,WNW,292,10.0,10.0,73,0.00,,,0.00,WUHU21623XXSP,2015-08-02 17:30:00,
2015-08-03 03:35:00,48.8,41.6,29.91,South,180,6.0,10.0,76,0.00,,,0.00,WUHU21623XXSP,2015-08-02 17:35:00,
2015-08-03 03:40:00,48.4,41.2,29.91,WSW,247,11.0,11.0,76,0.00,,,0.00,WUHU21623XXSP,2015-08-02 17:40:00,
2015-08-03 03:45:00,48.4,41.2,29.91,NW,315,9.0,11.0,76,0.00,,,0.00,WUHU21623XXSP,2015-08-02 17:45:00,
2015-08-03 03:50:00,48.6,41.1,29.91,SW,225,17.0,17.0,75,0.00,,,0.00,WUHU21623XXSP,2015-08-02 17:50:00,
2015-08-03 03:55:00,48.6,41.4,29.91,North,-9999,-999.9,0.0,76,0.00,,,0.00,WUHU21623XXSP,2015-08-02 17:55:00,
2015-08-03 04:00:00,48.6,41.4,29.91,North,-9999,-999.9,0.0,76,0.00,,,0.00,WUHU21623XXSP,2015-08-02 18:00:00,
2015-08-03 04:05:00,48.6,41.1,29.91,North,-9999,-999.9,0.0,75,0.00,,,0.00,WUHU21623XXSP,2015-08-02 18:05:00,
2015-08-03 04:10:00,48.8,41.3,29.92,North,-9999,-999.9,0.0,75,0.00,,,0.00,WUHU21623XXSP,2015-08-02 18:10:00,
2015-08-03 04:15:00,48.8,41.3,29.92,West,270,11.0,11.0,75,0.00,,,0.00,WUHU21623XXSP,2015-08-02 18:15:00,
2015-08-03 04:20:00,48.8,41.3,29.93,WNW,292,5.0,11.0,75,0.00,,,0.00,WUHU21623XXSP,2015-08-02 18:20:00,
2015-08-03 04:25:00,48.8,41.3,29.93,West,270,11.0,17.0,75,0.00,,,0.00,WUHU21623XXSP,2015-08-02 18:25:00,
2015-08-03 04:30:00,48.6,41.5,29.92,SSW,213,4.0,17.0,76,0.00,,,0.00,WUHU21623XXSP,2015-08-02 18:30:00,
2015-08-03 04:35:00,48.2,41.4,29.93,SW,225,5.0,11.0,77,0.00,,,0.00,WUHU21623XXSP,2015-08-02 18:35:00,
2015-08-03 04:40:00,47.9,41.4,29.93,WSW,247,9.0,11.0,78,0.00,,,0.00,WUHU21623XXSP,2015-08-02 18:40:00,
2015-08-03 04:45:00,47.9,41.5,29.93,WSW,242,9.0,13.0,78,0.00,,,0.00,WUHU21623XXSP,2015-08-02 18:45:00,
2015-08-03 04:50:00,47.6,41.1,29.93,West,270,9.0,13.0,78,0.00,,,0.00,WUHU21623XXSP,2015-08-02 18:50:00,
2015-08-03 04:55:00,47.6,41.1,29.93,West,270,9.0,9.0,78,0.00,,,0.00,WUHU21623XXSP,2015-08-02 18:55:00,
2015-08-03 05:00:00,47.6,41.1,29.94,North,-9999,-999.9,0.0,78,0.00,,,0.00,WUHU21623XXSP,2015-08-02 19:00:00,
2015-08-03 05:05:00,47.6,40.8,29.94,North,-9999,-999.9,0.0,77,0.00,,,0.00,WUHU21623XXSP,2015-08-02 19:05:00,
2015-08-03 05:10:00,47.6,40.8,29.94,North,-9999,-999.9,0.0,77,0.00,,,0.00,WUHU21623XXSP,2015-08-02 19:10:00,
2015-08-03 05:15:00,47.6,40.8,29.95,North,-9999,-999.9,0.0,77,0.00,,,0.00,WUHU21623XXSP,2015-08-02 19:15:00,
2015-08-03 05:20:00,47.8,41.0,29.95,North,-9999,-999.9,0.0,77,0.00,,,0.00,WUHU21623XXSP,2015-08-02 19:20:00,
2015-08-03 05:26:00,47.8,41.0,29.96,North,-9999,-999.9,0.0,77,0.00,,,0.00,WUHU21623XXSP,2015-08-02 19:26:00,
2015-08-03 05:31:00,47.6,40.8,29.96,WSW,257,7.0,8.0,77,0.00,,,0.00,WUHU21623XXSP,2015-08-02 19:31:00,
2015-08-03 05:36:00,47.5,40.7,29.97,West,270,10.0,10.0,77,0.00,,,0.00,WUHU21623XXSP,2015-08-02 19:36:00,
2015-08-03 05:41:00,47.4,40.9,29.97,West,270,10.0,10.0,78,0.00,,,0.00,WUHU21623XXSP,2015-08-02 19:41:00,
2015-08-03 05:46:00,47.2,40.7,29.97,North,-9999,-999.9,0.0,78,0.00,,,0.00,WUHU21623XXSP,2015-08-02 19:46:00,
2015-08-03 05:51:00,47.0,40.5,29.98,North,-9999,-999.9,0.0,78,0.00,,,0.00,WUHU21623XXSP,2015-08-02 19:51:00,
2015-08-03 05:56:00,46.8,40.7,29.97,North,-9999,-999.9,0.0,79,0.00,,,0.00,WUHU21623XXSP,2015-08-02 19:56:00,
2015-08-03 06:01:00,46.6,40.8,29.97,WSW,247,7.0,14.0,80,0.00,,,0.00,WUHU21623XXSP,2015-08-02 20:01:00,
2015-08-03 06:06:00,46.1,40.3,29.98,West,270,7.0,14.0,80,0.00,,,0.00,WUHU21623XXSP,2015-08-02 20:06:00,
2015-08-03 06:11:00,45.9,40.1,29.98,West,270,7.0,12.0,80,0.00,,,0.00,WUHU21623XXSP,2015-08-02 20:11:00,
2015-08-03 06:16:00,46.0,40.5,29.98,North,-9999,-999.9,0.0,81,0.00,,,0.00,WUHU21623XXSP,2015-08-02 20:16:00,
2015-08-03 06:21:00,45.8,40.6,29.98,North,-9999,-999.9,0.0,82,0.00,,,0.00,WUHU21623XXSP,2015-08-02 20:21:00,
2015-08-03 06:26:00,45.5,40.3,29.98,North,-9999,-999.9,0.0,82,0.00,,,0.00,WUHU21623XXSP,2015-08-02 20:26:00,
2015-08-03 06:31:00,45.5,40.3,29.98,North,-9999,-999.9,0.0,82,0.00,,,0.00,WUHU21623XXSP,2015-08-02 20:31:00,
2015-08-03 06:36:00,45.5,40.4,29.98,North,-9999,-999.9,0.0,82,0.00,,,0.00,WUHU21623XXSP,2015-08-02 20:36:00,
2015-08-03 06:41:00,45.5,40.1,29.98,North,-9999,-999.9,0.0,81,0.00,,,0.00,WUHU21623XXSP,2015-08-02 20:41:00,
2015-08-03 06:46:00,45.5,40.1,29.98,North,-9999,-999.9,0.0,81,0.00,,,0.00,WUHU21623XXSP,2015-08-02 20:46:00,
2015-08-03 06:51:00,45.6,40.1,29.98,North,-9999,-999.9,0.0,81,0.00,,,0.00,WUHU21623XXSP,2015-08-02 20:51:00,
2015-08-03 06:56:00,45.6,40.1,29.98,North,-9999,-999.9,0.0,81,0.00,,,0.00,WUHU21623XXSP,2015-08-02 20:56:00,
2015-08-03 07:01:00,45.6,40.1,29.98,North,-9999,-999.9,0.0,81,0.00,,,0.00,WUHU21623XXSP,2015-08-02 21:01:00,
2015-08-03 07:06:00,45.6,39.8,29.98,North,-9999,-999.9,0.0,80,0.00,,,0.00,WUHU21623XXSP,2015-08-02 21:06:00,
2015-08-03 07:11:00,45.6,39.8,29.99,North,-9999,-999.9,0.0,80,0.00,,,0.00,WUHU21623XXSP,2015-08-02 21:11:00,
2015-08-03 07:16:00,45.5,40.0,29.99,North,-9999,-999.9,0.0,81,0.00,,,0.00,WUHU21623XXSP,2015-08-02 21:16:00,
2015-08-03 07:21:00,45.3,39.8,29.99,North,-9999,-999.9,0.0,81,0.00,,,0.00,WUHU21623XXSP,2015-08-02 21:21:00,
2015-08-03 07:26:00,45.5,40.0,30.00,North,-9999,-999.9,0.0,81,0.00,,,0.00,WUHU21623XXSP,2015-08-02 21:26:00,
2015-08-03 07:31:00,45.5,40.0,30.01,North,-9999,-999.9,0.0,81,0.00,,,0.00,WUHU21623XXSP,2015-08-02 21:31:00,
2015-08-03 07:36:00,45.7,40.2,30.00,North,-9999,-999.9,0.0,81,0.00,,,0.00,WUHU21623XXSP,2015-08-02 21:36:00,
2015-08-03 07:41:00,45.7,40.2,30.01,North,-9999,-999.9,0.0,81,0.00,,,0.00,WUHU21623XXSP,2015-08-02 21:41:00,
2015-08-03 07:46:00,45.7,40.2,30.01,North,-9999,-999.9,0.0,81,0.00,,,0.00,WUHU21623XXSP,2015-08-02 21:46:00,
2015-08-03 07:51:00,45.7,39.9,30.01,North,-9999,-999.9,0.0,80,0.00,,,0.00,WUHU21623XXSP,2015-08-02 21:51:00,
2015-08-03 07:56:00,45.7,39.9,30.01,North,-9999,-999.9,0.0,80,0.00,,,0.00,WUHU21623XXSP,2015-08-02 21:56:00,
2015-08-03 08:01:00,45.7,39.9,30.02,North,-9999,-999.9,0.0,80,0.00,,,0.00,WUHU21623XXSP,2015-08-02 22:01:00,
2015-08-03 08:06:00,45.5,39.7,30.03,North,-9999,-999.9,0.0,80,0.00,,,0.00,WUHU21623XXSP,2015-08-02 22:06:00,
2015-08-03 08:11:00,45.3,39.9,30.03,North,-9999,-999.9,0.0,81,0.00,,,0.00,WUHU21623XXSP,2015-08-02 22:11:00,
2015-08-03 08:16:00,44.8,39.6,30.03,North,-9999,-999.9,0.0,82,0.00,,,0.00,WUHU21623XXSP,2015-08-02 22:16:00,
2015-08-03 08:21:00,44.4,39.6,30.03,North,-9999,-999.9,0.0,83,0.00,,,0.00,WUHU21623XXSP,2015-08-02 22:21:00,
2015-08-03 08:26:00,44.4,39.6,30.03,North,-9999,-999.9,0.0,83,0.00,,,0.00,WUHU21623XXSP,2015-08-02 22:26:00,
2015-08-03 08:31:00,44.4,39.9,30.03,North,-9999,-999.9,0.0,84,0.00,,,0.00,WUHU21623XXSP,2015-08-02 22:31:00,
2015-08-03 08:36:00,44.6,40.1,30.03,North,-9999,-999.9,0.0,84,0.00,,,0.00,WUHU21623XXSP,2015-08-02 22:36:00,
2015-08-03 08:41:00,44.8,40.2,30.04,North,-9999,-999.9,0.0,84,0.00,,,0.00,WUHU21623XXSP,2015-08-02 22:41:00,
2015-08-03 08:46:00,45.0,40.1,30.05,North,-9999,-999.9,0.0,83,0.00,,,0.00,WUHU21623XXSP,2015-08-02 22:46:00,
2015-08-03 08:51:00,45.0,40.1,30.05,North,-9999,-999.9,0.0,83,0.00,,,0.00,WUHU21623XXSP,2015-08-02 22:51:00,
2015-08-03 08:56:00,45.0,40.1,30.05,North,-9999,-999.9,0.0,83,0.00,,,0.00,WUHU21623XXSP,2015-08-02 22:56:00,
2015-08-03 09:01:00,45.5,40.7,30.05,North,-9999,-999.9,0.0,83,0.00,,,0.00,WUHU21623XXSP,2015-08-02 23:01:00,
2015-08-03 09:06:00,46.2,41.1,30.06,North,-9999,-999.9,0.0,82,0.00,,,0.00,WUHU21623XXSP,2015-08-02 23:06:00,
2015-08-03 09:11:00,46.8,41.6,30.06,North,-9999,-999.9,0.0,82,0.00,,,0.00,WUHU21623XXSP,2015-08-02 23:11:00,
2015-08-03 09:16:00,46.9,41.1,30.06,North,-9999,-999.9,0.0,80,0.00,,,0.00,WUHU21623XXSP,2015-08-02 23:16:00,
2015-08-03 09:21:00,47.5,41.3,30.06,North,-9999,-999.9,0.0,79,0.00,,,0.00,WUHU21623XXSP,2015-08-02 23:21:00,
2015-08-03 09:26:00,47.8,41.3,30.06,North,-9999,-999.9,0.0,78,0.00,,,0.00,WUHU21623XXSP,2015-08-02 23:26:00,
2015-08-03 09:31:00,48.0,40.7,30.07,North,-9999,-999.9,0.0,76,0.00,,,0.00,WUHU21623XXSP,2015-08-02 23:31:00,
2015-08-03 09:36:00,48.2,40.2,30.07,North,-9999,-999.9,0.0,74,0.00,,,0.00,WUHU21623XXSP,2015-08-02 23:36:00,
2015-08-03 09:41:00,48.4,40.4,30.07,North,-9999,-999.9,0.0,74,0.00,,,0.00,WUHU21623XXSP,2015-08-02 23:41:00,
2015-08-03 09:46:00,48.9,40.6,30.08,North,-9999,-999.9,0.0,73,0.00,,,0.00,WUHU21623XXSP,2015-08-02 23:46:00,
2015-08-03 09:51:00,49.1,40.4,30.08,North,-9999,-999.9,0.0,72,0.00,,,0.00,WUHU21623XXSP,2015-08-02 23:51:00,
2015-08-03 09:56:00,49.3,40.6,30.09,North,-9999,-999.9,0.0,72,0.00,,,0.00,WUHU21623XXSP,2015-08-02 23:56:00,
2015-08-03 10:01:00,49.6,40.3,30.09,North,-9999,-999.9,0.0,70,0.00,,,0.00,WUHU21623XXSP,2015-08-03 00:01:00,
2015-08-03 10:06:00,49.6,39.9,30.09,North,-9999,-999.9,0.0,69,0.00,,,0.00,WUHU21623XXSP,2015-08-03 00:06:00,
2015-08-03 10:11:00,49.8,40.1,30.10,North,-9999,-999.9,0.0,69,0.00,,,0.00,WUHU21623XXSP,2015-08-03 00:11:00,
2015-08-03 10:16:00,50.0,38.7,30.10,North,-9999,-999.9,0.0,65,0.00,,,0.00,WUHU21623XXSP,2015-08-03 00:16:00,
2015-08-03 10:21:00,50.2,38.4,30.10,North,-9999,-999.9,0.0,64,0.00,,,0.00,WUHU21623XXSP,2015-08-03 00:21:00,
2015-08-03 10:26:00,50.5,38.4,30.11,SW,235,11.0,14.0,63,0.00,,,0.00,WUHU21623XXSP,2015-08-03 00:26:00,
2015-08-03 10:31:00,50.5,38.4,30.11,SW,225,11.0,14.0,63,0.00,,,0.00,WUHU21623XXSP,2015-08-03 00:31:00,
2015-08-03 10:36:00,50.7,38.1,30.11,West,270,3.0,11.0,62,0.00,,,0.00,WUHU21623XXSP,2015-08-03 00:36:00,
2015-08-03 10:41:00,50.9,37.9,30.11,South,180,6.0,11.0,61,0.00,,,0.00,WUHU21623XXSP,2015-08-03 00:41:00,
2015-08-03 10:46:00,51.1,38.5,30.11,West,270,1.0,6.0,62,0.00,,,0.00,WUHU21623XXSP,2015-08-03 00:46:00,
2015-08-03 10:51:00,51.1,38.0,30.12,SSW,202,2.0,6.0,61,0.00,,,0.00,WUHU21623XXSP,2015-08-03 00:51:00,
2015-08-03 10:56:00,50.9,37.9,30.12,SSW,211,8.0,8.0,61,0.00,,,0.00,WUHU21623XXSP,2015-08-03 00:56:00,
2015-08-03 11:01:00,50.7,37.7,30.12,WSW,247,5.0,8.0,61,0.00,,,0.00,WUHU21623XXSP,2015-08-03 01:01:00,
2015-08-03 11:06:00,50.9,37.5,30.12,SSE,157,3.0,8.0,60,0.00,,,0.00,WUHU21623XXSP,2015-08-03 01:06:00,
2015-08-03 11:11:00,51.4,37.5,30.13,South,180,6.0,8.0,59,0.00,,,0.00,WUHU21623XXSP,2015-08-03 01:11:00,
2015-08-03 11:16:00,50.9,36.6,30.12,West,270,3.0,6.0,58,0.00,,,0.00,WUHU21623XXSP,2015-08-03 01:16:00,
2015-08-03 11:21:00,51.1,36.3,30.13,SE,135,4.0,12.0,57,0.00,,,0.00,WUHU21623XXSP,2015-08-03 01:21:00,
2015-08-03 11:26:00,51.8,37.0,30.13,SSW,202,10.0,12.0,57,0.00,,,0.00,WUHU21623XXSP,2015-08-03 01:26:00,
2015-08-03 11:31:00,52.2,36.8,30.13,South,180,7.0,10.0,56,0.00,,,0.00,WUHU21623XXSP,2015-08-03 01:31:00,
2015-08-03 11:36:00,52.7,37.8,30.13,SW,225,2.0,10.0,57,0.00,,,0.00,WUHU21623XXSP,2015-08-03 01:36:00,
2015-08-03 11:41:00,52.2,36.8,30.13,WSW,249,5.0,8.0,56,0.00,,,0.00,WUHU21623XXSP,2015-08-03 01:41:00,
2015-08-03 11:46:00,52.0,36.7,30.14,West,260,3.0,8.0,56,0.00,,,0.00,WUHU21623XXSP,2015-08-03 01:46:00,
2015-08-03 11:51:00,52.0,37.1,30.14,WSW,247,9.0,9.0,57,0.00,,,0.00,WUHU21623XXSP,2015-08-03 01:51:00,
2015-08-03 11:56:00,52.2,36.8,30.14,SSW,211,7.0,9.0,56,0.00,,,0.00,WUHU21623XXSP,2015-08-03 01:56:00,
2015-08-03 12:01:00,52.2,35.5,30.13,SW,225,9.0,9.0,53,0.00,,,0.00,WUHU21623XXSP,2015-08-03 02:01:00,
2015-08-03 12:06:00,52.2,35.5,30.13,SSE,161,3.0,9.0,53,0.00,,,0.00,WUHU21623XXSP,2015-08-03 02:06:00,
2015-08-03 12:11:00,52.5,36.3,30.13,SW,225,5.0,9.0,54,0.00,,,0.00,WUHU21623XXSP,2015-08-03 02:11:00,
2015-08-03 12:16:00,53.2,36.0,30.13,SW,225,14.0,14.0,52,0.00,,,0.00,WUHU21623XXSP,2015-08-03 02:16:00,
2015-08-03 12:21:00,53.8,36.5,30.13,SW,225,12.0,17.0,52,0.00,,,0.00,WUHU21623XXSP,2015-08-03 02:21:00,
2015-08-03 12:26:00,52.9,35.7,30.14,WSW,257,4.0,17.0,52,0.00,,,0.00,WUHU21623XXSP,2015-08-03 02:26:00,
2015-08-03 12:31:00,52.3,36.1,30.14,WSW,239,3.0,12.0,54,0.00,,,0.00,WUHU21623XXSP,2015-08-03 02:31:00,
2015-08-03 12:41:00,50.7,36.4,30.15,South,170,10.0,10.0,58,0.00,,,0.00,WUHU21623XXSP,2015-08-03 02:41:00,
2015-08-03 12:46:00,49.3,36.4,30.15,South,185,5.0,10.0,61,0.00,,,0.00,WUHU21623XXSP,2015-08-03 02:46:00,
2015-08-03 12:51:00,48.7,37.5,30.15,South,180,14.0,14.0,65,0.00,,,0.00,WUHU21623XXSP,2015-08-03 02:51:00,
2015-08-03 12:56:00,48.7,37.5,30.15,SSE,157,7.0,14.0,65,0.00,,,0.00,WUHU21623XXSP,2015-08-03 02:56:00,
2015-08-03 13:01:00,48.9,37.6,30.15,SSE,157,1.0,14.0,65,0.00,,,0.00,WUHU21623XXSP,2015-08-03 03:01:00,
2015-08-03 13:06:00,49.6,37.9,30.15,SSE,157,1.0,8.0,64,0.00,,,0.00,WUHU21623XXSP,2015-08-03 03:06:00,
2015-08-03 13:11:00,49.8,38.1,30.15,West,270,3.0,3.0,64,0.00,,,0.00,WUHU21623XXSP,2015-08-03 03:11:00,
2015-08-03 13:16:00,50.5,38.0,30.15,SSE,157,4.0,5.0,62,0.00,,,0.00,WUHU21623XXSP,2015-08-03 03:16:00,
2015-08-03 13:21:00,51.8,38.3,30.15,SSW,202,3.0,5.0,60,0.00,,,0.00,WUHU21623XXSP,2015-08-03 03:21:00,
2015-08-03 13:26:00,52.3,37.9,30.15,West,270,2.0,4.0,58,0.00,,,0.00,WUHU21623XXSP,2015-08-03 03:26:00,
2015-08-03 13:31:00,52.9,37.5,30.15,SSW,193,1.0,3.0,56,0.00,,,0.00,WUHU21623XXSP,2015-08-03 03:31:00,
2015-08-03 13:36:00,52.7,36.4,30.15,South,181,8.0,9.0,54,0.00,,,0.00,WUHU21623XXSP,2015-08-03 03:36:00,
2015-08-03 13:41:00,52.5,36.7,30.15,WSW,253,3.0,9.0,55,0.00,,,0.00,WUHU21623XXSP,2015-08-03 03:41:00,
2015-08-03 13:46:00,52.2,35.9,30.15,South,183,4.0,5.0,54,0.00,,,0.00,WUHU21623XXSP,2015-08-03 03:46:00,
2015-08-03 13:51:00,51.6,35.9,30.16,South,180,4.0,5.0,55,0.00,,,0.00,WUHU21623XXSP,2015-08-03 03:51:00,
2015-08-03 13:56:00,49.8,36.5,30.16,South,191,6.0,8.0,60,0.00,,,0.00,WUHU21623XXSP,2015-08-03 03:56:00,
2015-08-03 14:01:00,48.6,37.3,30.16,SSE,163,6.0,13.0,65,0.00,,,0.00,WUHU21623XXSP,2015-08-03 04:01:00,
2015-08-03 14:06:00,47.5,37.0,30.17,South,178,6.0,13.0,67,0.00,,,0.00,WUHU21623XXSP,2015-08-03 04:06:00,
2015-08-03 14:11:00,47.3,37.6,30.17,South,180,3.0,6.0,69,0.00,,,0.00,WUHU21623XXSP,2015-08-03 04:11:00,
2015-08-03 14:16:00,47.3,38.0,30.16,South,180,4.0,5.0,70,0.00,,,0.00,WUHU21623XXSP,2015-08-03 04:16:00,
2015-08-03 14:21:00,48.2,38.8,30.16,South,177,7.0,7.0,70,0.00,,,0.00,WUHU21623XXSP,2015-08-03 04:21:00,
2015-08-03 14:26:00,49.3,39.1,30.17,South,180,8.0,8.0,68,0.00,,,0.00,WUHU21623XXSP,2015-08-03 04:26:00,
2015-08-03 14:31:00,49.8,38.9,30.16,SW,225,3.0,9.0,66,0.00,,,0.00,WUHU21623XXSP,2015-08-03 04:31:00,
2015-08-03 14:36:00,50.2,38.8,30.17,South,180,6.0,9.0,65,0.00,,,0.00,WUHU21623XXSP,2015-08-03 04:36:00,
2015-08-03 14:41:00,50.4,39.0,30.17,WSW,238,5.0,7.0,65,0.00,,,0.00,WUHU21623XXSP,2015-08-03 04:41:00,
2015-08-03 14:46:00,50.7,38.5,30.17,West,270,3.0,7.0,63,0.00,,,0.00,WUHU21623XXSP,2015-08-03 04:46:00,
2015-08-03 14:51:00,51.6,38.1,30.17,South,185,7.0,7.0,60,0.00,,,0.00,WUHU21623XXSP,2015-08-03 04:51:00,
2015-08-03 14:56:00,51.8,37.9,30.17,SSW,202,1.0,7.0,59,0.00,,,0.00,WUHU21623XXSP,2015-08-03 04:56:00,
2015-08-03 15:01:00,51.6,37.2,30.17,South,183,5.0,5.0,58,0.00,,,0.00,WUHU21623XXSP,2015-08-03 05:01:00,
2015-08-03 15:06:00,51.4,37.1,30.18,WSW,247,3.0,12.0,58,0.00,,,0.00,WUHU21623XXSP,2015-08-03 05:06:00,
2015-08-03 15:11:00,51.3,36.9,30.18,SSW,202,5.0,12.0,58,0.00,,,0.00,WUHU21623XXSP,2015-08-03 05:11:00,
2015-08-03 15:16:00,50.7,36.4,30.18,SSW,202,5.0,10.0,58,0.00,,,0.00,WUHU21623XXSP,2015-08-03 05:16:00,
2015-08-03 15:21:00,50.4,36.6,30.18,WSW,247,7.0,10.0,59,0.00,,,0.00,WUHU21623XXSP,2015-08-03 05:21:00,
2015-08-03 15:26:00,50.4,37.4,30.18,South,180,10.0,10.0,61,0.00,,,0.00,WUHU21623XXSP,2015-08-03 05:26:00,
2015-08-03 15:31:00,50.4,38.2,30.19,SE,140,6.0,10.0,63,0.00,,,0.00,WUHU21623XXSP,2015-08-03 05:31:00,
2015-08-03 15:36:00,50.2,38.4,30.19,South,180,11.0,12.0,64,0.00,,,0.00,WUHU21623XXSP,2015-08-03 05:36:00,
2015-08-03 15:41:00,49.6,38.3,30.19,SSE,157,10.0,12.0,65,0.00,,,0.00,WUHU21623XXSP,2015-08-03 05:41:00,
2015-08-03 15:46:00,48.9,37.6,30.19,SE,140,6.0,11.0,65,0.00,,,0.00,WUHU21623XXSP,2015-08-03 05:46:00,
2015-08-03 15:51:00,48.7,37.5,30.20,SE,135,5.0,10.0,65,0.00,,,0.00,WUHU21623XXSP,2015-08-03 05:51:00,
2015-08-03 15:56:00,48.7,38.2,30.19,South,180,5.0,5.0,67,0.00,,,0.00,WUHU21623XXSP,2015-08-03 05:56:00,
2015-08-03 16:01:00,48.7,38.2,30.20,SSW,202,5.0,7.0,67,0.00,,,0.00,WUHU21623XXSP,2015-08-03 06:01:00,
2015-08-03 16:06:00,48.7,38.2,30.20,South,180,5.0,7.0,67,0.00,,,0.00,WUHU21623XXSP,2015-08-03 06:06:00,
2015-08-03 16:11:00,48.7,38.2,30.20,South,180,5.0,6.0,67,0.00,,,0.00,WUHU21623XXSP,2015-08-03 06:11:00,
2015-08-03 16:16:00,48.7,37.8,30.20,SSW,202,1.0,5.0,66,0.00,,,0.00,WUHU21623XXSP,2015-08-03 06:16:00,
2015-08-03 16:21:00,48.0,37.5,30.21,SSW,202,16.0,17.0,67,0.00,,,0.00,WUHU21623XXSP,2015-08-03 06:21:00,
2015-08-03 16:26:00,47.1,37.1,30.22,South,191,5.0,17.0,68,0.00,,,0.00,WUHU21623XXSP,2015-08-03 06:26:00,
2015-08-03 16:31:00,46.8,37.5,30.21,South,180,5.0,14.0,70,0.00,,,0.00,WUHU21623XXSP,2015-08-03 06:31:00,
2015-08-03 16:36:00,45.7,37.2,30.22,South,180,7.0,7.0,72,0.00,,,0.00,WUHU21623XXSP,2015-08-03 06:36:00,
2015-08-03 16:41:00,45.5,37.3,30.22,South,180,4.0,9.0,73,0.00,,,0.00,WUHU21623XXSP,2015-08-03 06:41:00,
2015-08-03 16:46:00,45.3,37.5,30.22,West,270,0.0,9.0,74,0.00,,,0.00,WUHU21623XXSP,2015-08-03 06:46:00,
2015-08-03 16:51:00,45.5,37.7,30.22,West,270,0.0,0.0,74,0.00,,,0.00,WUHU21623XXSP,2015-08-03 06:51:00,
2015-08-03 16:56:00,45.5,37.7,30.22,WSW,247,2.0,2.0,74,0.00,,,0.00,WUHU21623XXSP,2015-08-03 06:56:00,
2015-08-03 17:01:00,45.5,37.3,30.22,West,270,2.0,2.0,73,0.00,,,0.00,WUHU21623XXSP,2015-08-03 07:01:00,
2015-08-03 17:06:00,45.7,37.5,30.22,South,180,0.0,2.0,73,0.00,,,0.00,WUHU21623XXSP,2015-08-03 07:06:00,
2015-08-03 17:11:00,45.7,37.5,30.22,SSE,157,4.0,4.0,73,0.00,,,0.00,WUHU21623XXSP,2015-08-03 07:11:00,
2015-08-03 17:16:00,45.7,37.5,30.22,SSW,202,0.0,4.0,73,0.00,,,0.00,WUHU21623XXSP,2015-08-03 07:16:00,
2015-08-03 17:21:00,46.0,37.5,30.22,WSW,247,2.0,4.0,72,0.00,,,0.00,WUHU21623XXSP,2015-08-03 07:21:00,
2015-08-03 17:26:00,46.0,37.5,30.23,WSW,247,2.0,2.0,72,0.00,,,0.00,WUHU21623XXSP,2015-08-03 07:26:00,
2015-08-03 17:31:00,46.0,37.5,30.23,WSW,247,3.0,3.0,72,0.00,,,0.00,WUHU21623XXSP,2015-08-03 07:31:00,
2015-08-03 17:36:00,45.9,37.4,30.23,WSW,247,2.0,3.0,72,0.00,,,0.00,WUHU21623XXSP,2015-08-03 07:36:00,
2015-08-03 17:41:00,45.7,37.2,30.23,SW,225,1.0,3.0,72,0.00,,,0.00,WUHU21623XXSP,2015-08-03 07:41:00,
2015-08-03 17:46:00,45.5,37.0,30.23,WSW,247,2.0,2.0,72,0.00,,,0.00,WUHU21623XXSP,2015-08-03 07:46:00,
2015-08-03 17:51:00,45.3,36.8,30.24,SW,225,1.0,3.0,72,0.00,,,0.00,WUHU21623XXSP,2015-08-03 07:51:00,
2015-08-03 17:56:00,45.3,36.8,30.24,West,270,1.0,3.0,72,0.00,,,0.00,WUHU21623XXSP,2015-08-03 07:56:00,
2015-08-03 18:01:00,45.1,36.6,30.24,WSW,247,0.0,3.0,72,0.00,,,0.00,WUHU21623XXSP,2015-08-03 08:01:00,
2015-08-03 18:06:00,45.0,36.5,30.24,SW,225,1.0,3.0,72,0.00,,,0.00,WUHU21623XXSP,2015-08-03 08:06:00,
2015-08-03 18:11:00,44.8,36.6,30.23,WSW,237,2.0,3.0,73,0.00,,,0.00,WUHU21623XXSP,2015-08-03 08:11:00,
2015-08-03 18:16:00,44.4,36.3,30.23,WNW,292,2.0,3.0,73,0.00,,,0.00,WUHU21623XXSP,2015-08-03 08:16:00,
2015-08-03 18:21:00,44.2,36.1,30.24,WNW,292,0.0,3.0,73,0.00,,,0.00,WUHU21623XXSP,2015-08-03 08:21:00,
2015-08-03 18:26:00,43.9,35.8,30.23,WSW,247,2.0,2.0,73,0.00,,,0.00,WUHU21623XXSP,2015-08-03 08:26:00,
2015-08-03 18:31:00,43.7,35.9,30.23,WSW,247,0.0,2.0,74,0.00,,,0.00,WUHU21623XXSP,2015-08-03 08:31:00,
2015-08-03 18:36:00,43.5,35.8,30.23,West,270,2.0,4.0,74,0.00,,,0.00,WUHU21623XXSP,2015-08-03 08:36:00,
2015-08-03 18:41:00,43.3,35.6,30.23,WSW,247,1.0,4.0,74,0.00,,,0.00,WUHU21623XXSP,2015-08-03 08:41:00,
2015-08-03 18:46:00,43.3,35.6,30.24,SW,225,0.0,2.0,74,0.00,,,0.00,WUHU21623XXSP,2015-08-03 08:46:00,
2015-08-03 18:51:00,43.2,35.4,30.23,SW,225,4.0,4.0,74,0.00,,,0.00,WUHU21623XXSP,2015-08-03 08:51:00,
2015-08-03 18:56:00,43.0,35.3,30.23,SSW,202,3.0,4.0,74,0.00,,,0.00,WUHU21623XXSP,2015-08-03 08:56:00,
2015-08-03 19:01:00,42.6,34.9,30.23,WSW,247,3.0,5.0,74,0.00,,,0.00,WUHU21623XXSP,2015-08-03 09:01:00,
2015-08-03 19:06:00,42.6,34.9,30.23,SW,225,1.0,5.0,74,0.00,,,0.00,WUHU21623XXSP,2015-08-03 09:06:00,
2015-08-03 19:11:00,42.4,34.7,30.23,SSW,202,3.0,4.0,74,0.00,,,0.00,WUHU21623XXSP,2015-08-03 09:11:00,
2015-08-03 19:16:00,42.4,34.7,30.23,WSW,247,5.0,5.0,74,0.00,,,0.00,WUHU21623XXSP,2015-08-03 09:16:00,
2015-08-03 19:21:00,42.4,34.7,30.23,South,180,2.0,5.0,74,0.00,,,0.00,WUHU21623XXSP,2015-08-03 09:21:00,
2015-08-03 19:26:00,42.4,34.7,30.23,West,270,2.0,5.0,74,0.00,,,0.00,WUHU21623XXSP,2015-08-03 09:26:00,